Weather History for Kelso-Longview, WA

Change the Weather History Date:

Sunday, August 11, 2013

  Actual Average Record
Temperature  
Mean Temperature 64 °F -  
Max Temperature 69 °F 76 °F 102 °F (2014)
Min Temperature 59 °F 54 °F 44 °F (2007)
Degree Days  
Heating Degree Days 1    
Growing Degree Days 14 (Base 50)    
Moisture  
Dew Point 54 °F    
Average Humidity 71    
Maximum Humidity 82    
Minimum Humidity 60    
Precipitation  
Precipitation 0.00 in - - ()
Sea Level Pressure  
Sea Level Pressure 30.09 in    
Wind  
Wind Speed - (North)    
Max Wind Speed -    
Max Gust Speed -    
Visibility 10 miles    
Events      
Averages and records for this station are not official NWS values.
T = Trace of Precipitation, MM = Missing Value Source: NWS Daily Summary

Daily Weather History Graph

Daily Weather History Graph

Search for Another Location

Airport:

Trip Planner

Search our weather history database for the weather conditions in past years. The results will help you decide how hot, cold, wet, or windy it might be!

Date:

Astronomy

Aug. 11, 2013 Rise Set
Actual Time 6:06 AM PDT 8:26 PM PDT
Civil Twilight 5:33 AM PDT 8:59 PM PDT
Nautical Twilight 4:51 AM PDT 9:40 PM PDT
Astronomical Twilight 4:04 AM PDT 10:26 PM PDT
Moon 11:20 AM PDT (8/11) 10:23 PM PDT (8/11)
Length of Visible Light 15h 26m
Length of Day
14h 19m
Waxing Crescent, 23% of the Moon is Illuminated
Aug 11
Waxing Crescent
Aug 14
First Quarter
Aug 20
Full
Aug 28
Last Quarter
Sep 5
New

Hourly Weather History & Observations

Time (PDT) Temp. Dew Point Humidity Pressure Visibility Wind Dir Wind Speed Gust Speed Precip Events Conditions
12:15 AM 60.8 °F 53.6 °F 77% 30.09 in 10.0 mi North - - N/A   Overcast
12:35 AM 60.8 °F 53.6 °F 77% 30.09 in 10.0 mi North - - N/A   Overcast
12:55 AM 60.8 °F 53.6 °F 77% 30.10 in 10.0 mi North - - N/A   Overcast
1:15 AM 60.8 °F 53.6 °F 77% 30.10 in 10.0 mi North - - N/A   Overcast
1:35 AM 60.8 °F 53.6 °F 77% 30.09 in 10.0 mi North - - N/A   Overcast
1:55 AM 60.8 °F 53.6 °F 77% 30.09 in 10.0 mi North - - N/A   Overcast
2:15 AM 60.8 °F 53.6 °F 77% 30.08 in 10.0 mi North - - N/A   Overcast
2:35 AM 60.8 °F 53.6 °F 77% 30.09 in 10.0 mi North - - N/A   Overcast
2:55 AM 60.8 °F 53.6 °F 77% 30.10 in 10.0 mi North - - N/A   Overcast
3:15 AM 60.8 °F 53.6 °F 77% 30.10 in 10.0 mi North - - N/A   Overcast
3:35 AM 60.8 °F 53.6 °F 77% 30.11 in 10.0 mi North - - N/A   Overcast
3:55 AM 60.8 °F 53.6 °F 77% 30.10 in 10.0 mi North - - N/A   Overcast
4:15 AM 60.8 °F 53.6 °F 77% 30.10 in 10.0 mi North - - N/A   Overcast
4:35 AM 60.8 °F 53.6 °F 77% 30.10 in 10.0 mi North - - N/A   Overcast
4:55 AM 60.8 °F 53.6 °F 77% 30.10 in 10.0 mi North - - N/A   Overcast
5:15 AM 60.8 °F 53.6 °F 77% 30.10 in 10.0 mi North - - N/A   Overcast
5:35 AM 60.8 °F 53.6 °F 77% 30.11 in 10.0 mi North - - N/A   Overcast
5:55 AM 60.8 °F 53.6 °F 77% 30.11 in 10.0 mi North - - N/A   Overcast
6:15 AM 60.8 °F 51.8 °F 72% 30.11 in 10.0 mi North - - N/A   Overcast
6:35 AM 60.8 °F 51.8 °F 72% 30.11 in 10.0 mi North - - N/A   Overcast
6:55 AM 60.8 °F 51.8 °F 72% 30.11 in 10.0 mi North - - N/A   Overcast
7:15 AM 60.8 °F 51.8 °F 72% 30.11 in 10.0 mi North - - N/A   Overcast
7:35 AM 59.0 °F 53.6 °F 82% 30.12 in 10.0 mi North - - N/A   Overcast
7:55 AM 59.0 °F 53.6 °F 82% 30.12 in 7.0 mi North - - N/A   Overcast
8:15 AM 59.0 °F 53.6 °F 82% 30.11 in 10.0 mi North - - N/A   Overcast
8:35 AM 59.0 °F 53.6 °F 82% 30.12 in 10.0 mi North - - N/A   Overcast
8:55 AM 60.8 °F 53.6 °F 77% 30.11 in 10.0 mi North - - N/A   Overcast
9:15 AM 60.8 °F 53.6 °F 77% 30.12 in 10.0 mi North - - N/A   Overcast
9:35 AM 60.8 °F 53.6 °F 77% 30.11 in 10.0 mi North - - N/A   Overcast
9:55 AM 60.8 °F 53.6 °F 77% 30.11 in 10.0 mi North - - N/A   Overcast
10:15 AM 60.8 °F 53.6 °F 77% 30.11 in 10.0 mi North - - N/A   Overcast
10:35 AM 60.8 °F 53.6 °F 77% 30.11 in 10.0 mi North - - N/A   Overcast
10:55 AM 62.6 °F 53.6 °F 72% 30.11 in 10.0 mi North - - N/A   Overcast
11:15 AM 62.6 °F 53.6 °F 72% 30.11 in 10.0 mi North - - N/A   Overcast
11:35 AM 62.6 °F 53.6 °F 72% 30.11 in 10.0 mi North - - N/A   Overcast
11:55 AM 62.6 °F 53.6 °F 72% 30.11 in 10.0 mi North - - N/A   Overcast
12:15 PM 64.4 °F 53.6 °F 68% 30.11 in 10.0 mi North - - N/A   Overcast
12:35 PM 64.4 °F 53.6 °F 68% 30.11 in 10.0 mi North - - N/A   Overcast
12:55 PM 64.4 °F 53.6 °F 68% 30.11 in 10.0 mi North - - N/A   Overcast
1:15 PM 64.4 °F 53.6 °F 68% 30.11 in 10.0 mi North - - N/A   Overcast
1:35 PM 66.2 °F 55.4 °F 68% 30.11 in 10.0 mi North - - N/A   Overcast
1:55 PM 66.2 °F 55.4 °F 68% 30.11 in 10.0 mi North - - N/A   Overcast
2:15 PM 66.2 °F 55.4 °F 68% 30.11 in 10.0 mi North - - N/A   Overcast
2:35 PM 68.0 °F 55.4 °F 64% 30.10 in 10.0 mi North - - N/A   Overcast
2:55 PM 68.0 °F 55.4 °F 64% 30.10 in 10.0 mi North - - N/A   Overcast
3:15 PM 68.0 °F 55.4 °F 64% 30.09 in 10.0 mi North - - N/A   Overcast
3:35 PM 69.8 °F 55.4 °F 60% 30.09 in 10.0 mi North - - N/A   Overcast
3:55 PM 69.8 °F 55.4 °F 60% 30.08 in 10.0 mi North - - N/A   Overcast
4:15 PM 69.8 °F 55.4 °F 60% 30.08 in 10.0 mi North - - N/A   Overcast
4:35 PM 69.8 °F 55.4 °F 60% 30.07 in 10.0 mi North - - N/A   Overcast
4:55 PM 69.8 °F 55.4 °F 60% 30.07 in 10.0 mi North - - N/A   Overcast
5:15 PM 69.8 °F 55.4 °F 60% 30.06 in 10.0 mi North - - N/A   Overcast
5:35 PM 69.8 °F 55.4 °F 60% 30.06 in 10.0 mi North - - N/A   Scattered Clouds
5:55 PM 69.8 °F 55.4 °F 60% 30.06 in 10.0 mi North - - N/A   Clear
6:15 PM 69.8 °F 55.4 °F 60% 30.05 in 10.0 mi North - - N/A   Clear
6:35 PM 68.0 °F 55.4 °F 64% 30.05 in 10.0 mi North - - N/A   Clear
6:55 PM 68.0 °F 55.4 °F 64% 30.05 in 10.0 mi North - - N/A   Clear
7:15 PM 68.0 °F 53.6 °F 60% 30.05 in 10.0 mi North - - N/A   Clear
7:35 PM 68.0 °F 53.6 °F 60% 30.05 in 10.0 mi North - - N/A   Clear
7:55 PM 66.2 °F 55.4 °F 68% 30.05 in 10.0 mi North - - N/A   Clear
8:15 PM 66.2 °F 53.6 °F 64% 30.05 in 10.0 mi North - - N/A   Clear
8:35 PM 64.4 °F 53.6 °F 68% 30.05 in 10.0 mi North - - N/A   Clear
8:55 PM 64.4 °F 53.6 °F 68% 30.06 in 10.0 mi North - - N/A   Clear
9:15 PM 64.4 °F 53.6 °F 68% 30.07 in 10.0 mi North - - N/A   Partly Cloudy
9:35 PM 62.6 °F 53.6 °F 72% 30.07 in 10.0 mi North - - N/A   Scattered Clouds
9:55 PM 62.6 °F 53.6 °F 72% 30.08 in 10.0 mi North - - N/A   Overcast
10:15 PM 62.6 °F 55.4 °F 77% 30.08 in 10.0 mi North - - N/A   Overcast
10:35 PM 62.6 °F 55.4 °F 77% 30.08 in 10.0 mi North - - N/A   Mostly Cloudy
10:55 PM 62.6 °F 55.4 °F 77% 30.08 in 10.0 mi North - - N/A   Mostly Cloudy
11:15 PM 62.6 °F 55.4 °F 77% 30.08 in 10.0 mi North - - N/A   Overcast
11:35 PM 62.6 °F 53.6 °F 72% 30.08 in 10.0 mi North - - N/A   Overcast
11:55 PM 62.6 °F 55.4 °F 77% 30.08 in 10.0 mi North - - N/A   Overcast